Weather History for Athens, GA

Change the Weather History Date:

Tuesday, October 9, 2012

  Actual Average Record
Temperature  
Mean Temperature 57 °F 65 °F  
Max Temperature 68 °F 76 °F 92 °F (1931)
Min Temperature 46 °F 54 °F 32 °F (2000)
Degree Days  
Heating Degree Days 8 3  
Month to date heating degree days 20 18  
Since 1 July heating degree days 22 28  
Cooling Degree Days 0 3  
Month to date cooling degree days 28 31  
Year to date cooling degree days 1956 1846  
Growing Degree Days 8 (Base 50)    
Moisture  
Dew Point 48 °F    
Average Humidity 71    
Maximum Humidity 93    
Minimum Humidity 49    
Precipitation  
Precipitation 0.00 in 0.12 in 3.21 in (1936)
Month to date precipitation 1.79 1.18  
Year to date precipitation 30.40 36.41  
Snow  
Snow 0.00 in 0.00 in 0.00 in (2002)
Month to date snowfall 0.0  
Since 1 July snowfall 0.0  
Since 1 September snowfall 0.0  
Snow Depth -    
Sea Level Pressure  
Sea Level Pressure 30.13 in    
Wind  
Wind Speed 4 mph (ENE)    
Max Wind Speed 10 mph    
Max Gust Speed 14 mph    
Visibility 6 miles    
Events      
T = Trace of Precipitation, MM = Missing Value Source: NWS Daily Summary

Daily Weather History Graph

Daily Weather History Graph

Search for Another Location

Airport:

Trip Planner

Search our weather history database for the weather conditions in past years. The results will help you decide how hot, cold, wet, or windy it might be!

Date:

Astronomy

Oct. 09, 2012 Rise Set
Actual Time 7:34 AM EDT 7:06 PM EDT
Civil Twilight 7:09 AM EDT 7:31 PM EDT
Nautical Twilight 6:40 AM EDT 8:00 PM EDT
Astronomical Twilight 6:11 AM EDT 8:29 PM EDT
Moon 1:25 AM EDT (10/9) 3:18 PM EDT (10/9)
Length of Visible Light 12h 22m
Length of Day
11h 32m
Last Quarter, 37% of the Moon is Illuminated
Oct 9
Last Quarter
Oct 15
New
Oct 21
First Quarter
Oct 29
Full
Nov 6
Last Quarter

Hourly Weather History & Observations

Time (EDT) Temp. Dew Point Humidity Pressure Visibility Wind Dir Wind Speed Gust Speed Precip Events Conditions
12:51 AM 51.8 °F 48.2 °F 88% 30.15 in 5.0 mi East 5.8 mph - N/A   Overcast
1:12 AM 51.8 °F 48.2 °F 88% 30.15 in 5.0 mi ENE 5.8 mph - N/A   Overcast
1:23 AM 51.8 °F 48.2 °F 88% 30.15 in 5.0 mi NE 5.8 mph - N/A   Overcast
1:35 AM 51.8 °F 48.2 °F 88% 30.15 in 4.0 mi NE 4.6 mph - N/A   Overcast
1:51 AM 51.1 °F 48.9 °F 92% 30.15 in 4.0 mi NE 3.5 mph - N/A   Overcast
2:21 AM 51.8 °F 48.2 °F 88% 30.15 in 6.0 mi ENE 4.6 mph - N/A   Overcast
2:31 AM 51.8 °F 48.2 °F 88% 30.15 in 6.0 mi ENE 5.8 mph - N/A   Overcast
2:51 AM 51.1 °F 48.0 °F 89% 30.14 in 6.0 mi NE 4.6 mph - N/A   Overcast
3:51 AM 51.8 °F 48.2 °F 88% 30.14 in 6.0 mi Calm Calm - N/A   Overcast
4:26 AM 50.0 °F 48.2 °F 94% 30.12 in 5.0 mi NE 6.9 mph - N/A   Mostly Cloudy
4:51 AM 50.0 °F 48.0 °F 93% 30.13 in 5.0 mi Calm Calm - N/A   Overcast
5:51 AM 50.0 °F 48.0 °F 93% 30.14 in 6.0 mi ENE 4.6 mph - N/A   Overcast
6:14 AM 50.0 °F 48.2 °F 94% 30.14 in 6.0 mi East 3.5 mph - N/A   Overcast
6:51 AM 50.0 °F 48.0 °F 93% 30.15 in 6.0 mi NE 4.6 mph - N/A   Overcast
7:17 AM 50.0 °F 48.2 °F 94% 30.15 in 6.0 mi NE 4.6 mph - N/A   Overcast
7:51 AM 51.8 °F 48.2 °F 88% 30.16 in 4.0 mi Calm Calm - N/A   Overcast
8:06 AM 50.0 °F 48.2 °F 94% 30.16 in 5.0 mi ENE 3.5 mph - N/A   Overcast
8:23 AM 51.8 °F 48.2 °F 88% 30.17 in 5.0 mi Calm Calm - N/A   Overcast
8:51 AM 51.1 °F 48.0 °F 89% 30.18 in 5.0 mi East 5.8 mph - N/A   Overcast
9:51 AM 53.6 °F 48.2 °F 82% 30.18 in 6.0 mi ENE 6.9 mph - N/A   Haze
10:51 AM 55.9 °F 48.9 °F 77% 30.19 in 7.0 mi ENE 5.8 mph - N/A   Overcast
11:51 AM 60.1 °F 48.9 °F 67% 30.16 in 8.0 mi ENE 5.8 mph - N/A   Mostly Cloudy
12:51 PM 64.0 °F 46.9 °F 54% 30.14 in 8.0 mi Calm Calm - N/A   Partly Cloudy
1:51 PM 64.0 °F 48.0 °F 56% 30.12 in 8.0 mi NNW 5.8 mph - N/A   Overcast
2:51 PM 64.9 °F 48.9 °F 56% 30.10 in 8.0 mi Variable 3.5 mph - N/A   Mostly Cloudy
3:51 PM 66.9 °F 48.9 °F 52% 30.08 in 8.0 mi NNW 4.6 mph - N/A   Clear
4:51 PM 68.0 °F 48.9 °F 50% 30.08 in 8.0 mi Calm Calm - N/A   Clear
5:51 PM 66.2 °F 48.2 °F 52% 30.08 in 8.0 mi Calm Calm - N/A   Partly Cloudy
6:51 PM 61.0 °F 51.1 °F 70% 30.08 in 8.0 mi ENE 4.6 mph - N/A   Clear
7:51 PM 55.9 °F 51.1 °F 84% 30.08 in 9.0 mi East 5.8 mph - N/A   Clear
8:51 PM 54.0 °F 50.0 °F 86% 30.10 in 9.0 mi East 6.9 mph - N/A   Clear
9:51 PM 52.0 °F 48.9 °F 89% 30.12 in 8.0 mi East 5.8 mph - N/A   Clear
10:51 PM 50.0 °F 46.9 °F 89% 30.13 in 7.0 mi East 4.6 mph - N/A   Clear
11:51 PM 48.0 °F 46.0 °F 93% 30.12 in 6.0 mi East 3.5 mph - N/A   Clear